Location: Newark
(34.6000°N, 98.3833°W)
Time: 05:14:03
(UTC+00:00)

N. Korean satellite - Pass Details

Date: 27 October 2019
Orbit: 456 x 506 km, 97.2° (Epoch: 10 November)

Event Time Altitude Azimuth Distance (km) Brightness Sun altitude
Rises 11:17:42 0° 39° (NE) 2,590 10.8 -19.4°
Reaches altitude 10° 11:21:23 10° 78° (ENE) 1,709 10.5 -18.7°
Maximum altitude 11:22:18 11° 93° (E) 1,662 10.5 -18.5°
Drops below altitude 10° 11:23:14 10° 107° (ESE) 1,710 10.5 -18.3°
Sets 11:26:55 0° 146° (SE) 2,592 10.8 -17.5°
